Regional Weather Roundup
Issued by NWS

Home | Current Version | Previous Version | Graphics & Text | Print | Product List | Glossary On
Versions: 1 2 3 4 5 6 7 8 9 10 11 12 13 14 15 16 17 18 19 20 21 22 23 24 25 26 27 28 29 30 31 32 33 34 35 36 37 38 39 40 41 42 43 44 45 46 47 48 49 50
000
ASUS45 KSLC 260010
RWRUT

UTAH REGIONAL WEATHER ROUNDUP
NATIONAL WEATHER SERVICE SALT LAKE CITY UT
600 PM MDT SAT APR 25 2015

UTZ001>011-023>025-260100-

NORTHERN UTAH

CITY           SKY/WX    TMP DP  RH WIND       PRES   REMARKS
BRIGHAM CITY   CLOUDY    56  32  40 CALM      29.69S
HILL AFB       CLOUDY    54  37  52 NW7       29.69R
LOGAN          PTSUNNY   55  30  38 W5        29.68S
OGDEN          LGT RAIN  54  37  52 N13       29.67S
PROVO AIRPORT  CLOUDY    48  41  76 W10       29.70R
SALT LAKE CITY RAIN      47  43  86 SE7       29.72R FOG
VERNAL         LGT RAIN  47  40  76 SW15G26   29.76R
WENDOVER       CLOUDY    52  37  58 S3        29.71R
HEBER CITY     MIX PCPN  41  36  81 CALM      29.74R
WEST JORDAN    CLOUDY    45  43  93 SW9       29.72R

$$

UTZ012>022-026-027-260100-

SOUTHERN/CENTRAL UTAH

CITY           SKY/WX    TMP DP  RH WIND       PRES   REMARKS
BLANDING       CLOUDY    57  32  39 SE20G29   29.79F
BRYCE CANYON   CLOUDY    38  36  92 SE10      29.77R WCI  31
CEDAR CITY     CLOUDY    44  36  73 S23       29.72R
DELTA          CLOUDY    44  42  92 SE9       29.71F
HANKSVILLE     CLOUDY    52  45  76 CALM      29.71S
MILFORD        CLOUDY    47  28  47 SW16      29.70S
MOAB/CYNLANDS  SUNNY     52  45  77 E21       29.68S
PRICE          LGT RAIN  44  38  79 E3        29.74S
ST GEORGE      CLOUDY    52  43  71 E7        29.75S
KANAB          CLOUDY    43  43 100 SW9       29.82R

$$

REGIONAL REPORTS     COLORADO/ARIZONA

CITY           SKY/WX    TMP DP  RH WIND       PRES   REMARKS
CRAIG, CO      PTSUNNY   54  31  41 NE6       29.76S
GRAND JUNCTION CLOUDY    49  45  86 W9        29.76S
RIFLE          CLOUDY    53  37  54 W6        29.75F
MONTROSE       CLOUDY    51  43  74 NW8       29.78S
CORTEZ         MOSUNNY   59  32  36 MISG      29.77S
PAGE, AZ       CLOUDY    55  41  59 W8        29.73R
GRAND CANYON   CLOUDY    42  39  89 SW13      29.82F
KINGMAN        CLOUDY    57  40  52 SW16      29.75F
FLAGSTAFF      LGT RAIN  38  37  97 SW14G28   29.82F FOG     WCI  30

$$

REGIONAL REPORTS    NEVADA/IDAHO/WYOMING

CITY           SKY/WX    TMP DP  RH WIND       PRES   REMARKS
LAS VEGAS, NV  LGT RAIN  63  40  42 SW22G37   29.63R
ELY            LGT RAIN  38  35  89 MISG      29.75S
ELKO           CLOUDY    47  33  58 NW10      29.76R
POCATELLO, ID  CLOUDY    52  34  50 SW12      29.72R
BURLEY         LGT RAIN  47  35  63 W10       29.74R
EVANSTON, WY   CLOUDY    40  34  79 E15       29.75R WCI  32
ROCK SPRINGS   CLOUDY    51  24  34 NE3       29.74S
KEMMERER       CLOUDY    45  27  49 N5        29.75R

$$



USA.gov is the U.S. government's official web portal to all federal, state and local government web resources and services.